[[{"header":{"parameterUnit":"m.s-1","parameterCategory":1,"la1":30.2991,"la2":30.254,"lo1":-89.0895,"lo2":-89.0444,"dy":0.0017,"dx":0.0017,"nx":28,"ny":28,"refTime":"2025-04-30T03:00:00:Z","depth":0,"parameterNumber":2,"parameterNumberName":"U-component_of_WINDS"},"data":[0,0,0,0,0,0,0,0,0,0,0,0,0,0,0,0,0,0,0,0,0,0,0,0,0,0,0,0,0,0,0,0,0,0,0,0,0,0,0,0,0,0,0,0,0,0,0,0,0,0,0,0,0,0,0,0,0,0,-1.7492,-1.7491,0,-1.7412,-1.7411,-1.741,-1.7366,-1.7366,-1.7366,-1.7365,-1.7281,-1.7279,-1.7276,0,0,0,0,0,0,0,0,0,0,0,0,0,-1.7604,-1.7602,-1.7492,-1.7491,-1.749,-1.7412,-1.7411,-1.741,-1.7366,-1.7366,-1.7366,-1.7365,-1.7281,-1.7279,-1.7276,0,0,0,0,0,0,0,0,0,0,0,0,0,-1.7543,-1.7601,-1.7492,-1.7459,-1.7455,-1.7413,-1.7411,-1.741,-1.7366,-1.7366,-1.7365,-1.7365,-1.7282,-1.7279,-1.7276,-1.726,0,0,-1.7266,-1.7265,0,0,0,0,0,0,0,0,-1.7546,-1.7539,-1.7465,-1.7461,-1.7457,-1.7399,-1.742,-1.736,-1.7366,-1.74,-1.7365,-1.7365,-1.732,-1.7314,-1.7299,-1.7256,-1.7252,-1.7266,-1.7264,-1.7262,-1.7262,0,0,0,0,0,0,0,-1.7551,-1.7542,-1.746,-1.7464,-1.7459,-1.7447,-1.7438,-1.7408,-1.7362,-1.7397,-1.7393,-1.7385,-1.7318,-1.7302,-1.7297,-1.7251,-1.7266,-1.7263,-1.7261,-1.726,-1.719,-1.719,0,0,0,0,0,0,-1.7561,-1.7546,-1.7463,-1.7458,-1.7502,-1.7445,-1.7435,-1.7418,-1.7362,-1.7353,-1.7385,-1.7383,-1.7308,-1.73,-1.7293,-1.727,-1.7262,-1.7259,-1.7258,-1.719,-1.719,-1.719,0,0,0,0,0,0,-1.7563,-1.7554,-1.7466,-1.7501,-1.7489,-1.7443,-1.7424,-1.7416,-1.74,-1.7353,-1.7344,-1.7378,-1.7307,-1.7298,-1.7269,-1.7267,-1.7258,-1.7255,-1.719,-1.719,-1.719,-1.7225,0,0,0,0,0,0,-1.7567,-1.7555,-1.7549,-1.7501,-1.7487,-1.7444,-1.7424,-1.7415,-1.7395,-1.7392,-1.7344,-1.7336,-1.7306,-1.7274,-1.7266,-1.7262,-1.7253,-1.719,-1.719,-1.719,-1.7224,-1.7226,-1.7228,0,0,0,0,0,-1.7571,-1.7561,-1.7549,-1.7539,-1.7479,-1.7444,-1.7436,-1.7403,-1.7396,-1.7389,-1.7358,-1.7337,-1.7269,-1.7271,-1.7261,-1.7257,-1.719,-1.719,-1.719,-1.7223,-1.7226,-1.7228,0,0,0,0,0,0,-1.7609,-1.7554,-1.754,-1.7515,-1.7485,-1.7436,-1.7427,-1.7407,-1.7377,-1.7375,-1.7335,-1.7325,-1.7299,-1.7275,-1.7279,-1.7239,-1.7227,-1.7225,-1.7255,-1.7257,-1.726,-1.7265,-1.725,0,0,0,0,0,-1.7615,-1.7591,-1.7545,-1.7527,-1.7513,-1.7473,-1.7456,-1.7434,-1.74,-1.7386,-1.7354,-1.7321,-1.7292,-1.7273,-1.7244,-1.7221,-1.7209,-1.7213,-1.7215,-1.7217,-1.7216,-1.7201,-1.7202,-1.7191,-1.7191,-1.7191,0,0,-1.7626,-1.7593,-1.7581,-1.7534,-1.7508,-1.7483,-1.7462,-1.7437,-1.7419,-1.7382,-1.7352,-1.7328,-1.7288,-1.7262,-1.7248,-1.7241,-1.7217,-1.7218,-1.722,-1.7217,-1.7201,-1.7202,-1.7203,-1.7191,-1.7191,-1.7191,0,0,-1.7634,-1.7607,-1.7589,-1.7564,-1.7524,-1.7498,-1.7494,-1.7448,-1.7431,-1.7401,-1.7373,-1.735,-1.7301,-1.7274,-1.7254,-1.7252,-1.7231,-1.7244,-1.7255,-1.7241,-1.7242,-1.7243,-1.7241,-1.7241,-1.7243,-1.7243,-1.7243,0,-1.7652,-1.7615,-1.7582,-1.7559,-1.7539,-1.7507,-1.7488,-1.7464,-1.7417,-1.7403,-1.7397,-1.7335,-1.7306,-1.7272,-1.7272,-1.7257,-1.725,-1.7248,-1.7245,-1.7245,-1.7245,-1.7243,-1.7243,-1.7245,-1.7244,-1.7244,-1.7244,0,-1.764,-1.7615,-1.7605,-1.7561,-1.754,-1.7519,-1.7482,-1.7465,-1.7445,-1.7419,-1.7388,-1.7353,-1.7316,-1.7306,-1.7286,-1.7269,-1.7266,-1.7253,-1.724,-1.7248,-1.7246,-1.7245,-1.7247,-1.7246,-1.7246,-1.7245,0,0,-1.7668,-1.7607,-1.7604,-1.7583,-1.7538,-1.7518,-1.7495,-1.746,-1.7445,-1.7414,-1.7394,-1.7354,-1.7341,-1.7318,-1.7294,-1.7282,-1.7282,-1.727,-1.7268,-1.7273,-1.7261,-1.7271,-1.727,-1.7269,-1.7269,-1.7268,-1.7264,0,-1.7668,-1.7627,-1.7597,-1.7567,-1.7543,-1.7512,-1.7492,-1.7462,-1.7437,-1.7413,-1.7385,-1.7357,-1.7343,-1.7329,-1.7316,-1.7285,-1.7279,-1.7285,-1.7248,-1.7247,-1.7258,-1.7269,-1.7279,-1.7277,-1.7263,-1.7263,-1.7263,0,-1.7663,-1.7634,-1.7602,-1.7559,-1.7548,-1.7531,-1.7496,-1.7473,-1.7438,-1.7421,-1.7396,-1.7372,-1.7346,-1.7337,-1.73,-1.7305,-1.7288,-1.7271,-1.727,-1.7264,-1.7255,-1.7263,-1.7275,-1.7274,-1.7261,-1.7261,-1.7261,0,-1.7686,-1.7638,-1.7613,-1.7597,-1.7546,-1.7535,-1.7513,-1.7478,-1.7459,-1.7428,-1.7415,-1.7382,-1.7363,-1.7337,-1.7304,-1.7301,-1.7271,-1.7259,-1.7254,-1.7255,-1.7248,-1.7249,-1.7257,-1.724,-1.724,-1.724,-1.724,0,-1.7689,-1.767,-1.7623,-1.7607,-1.7585,-1.755,-1.7529,-1.7505,-1.7474,-1.7452,-1.7423,-1.7403,-1.7362,-1.7337,-1.7311,-1.7284,-1.7276,-1.726,-1.7253,-1.7262,-1.7264,-1.725,-1.7248,-1.724,-1.724,-1.724,-1.724,0,-1.771,-1.7677,-1.7647,-1.7603,-1.7591,-1.7577,-1.7538,-1.7521,-1.7495,-1.7468,-1.746,-1.7419,-1.7388,-1.7353,-1.731,-1.7292,-1.7267,-1.7257,-1.7279,-1.7275,-1.7272,-1.7272,-1.727,-1.7268,-1.7253,-1.7254,-1.7254,0,-1.7713,-1.7698,-1.7652,-1.7636,-1.7615,-1.7589,-1.757,-1.7535,-1.7516,-1.7475,-1.7463,-1.743,-1.7401,-1.7353,-1.7319,-1.7286,-1.7275,-1.7276,-1.7269,-1.7279,-1.7274,-1.7274,-1.7272,-1.7278,-1.7278,-1.7279,-1.7279,0,-1.7722,-1.7707,-1.768,-1.7648,-1.7625,-1.7598,-1.7569,-1.7558,-1.7517,-1.7497,-1.7465,-1.7444,-1.74,-1.7368,-1.7331,-1.7307,-1.7286,-1.7282,-1.7279,-1.7287,-1.7299,-1.7292,-1.7283,-1.7281,-1.7281,-1.7281,-1.7281,-1.7281,-1.7733,-1.7718,-1.7684,-1.7655,-1.763,-1.7604,-1.7586,-1.7558,-1.7532,-1.7494,-1.7475,-1.7444,-1.7409,-1.7357,-1.7334,-1.7309,-1.7302,-1.7298,-1.7296,-1.7296,-1.7298,-1.7305,-1.7302,-1.7302,-1.7302,-1.7301,-1.7301,0,-1.774,-1.7716,-1.769,-1.7651,-1.7629,-1.7612,-1.758,-1.7561,-1.7534,-1.7504,-1.7477,-1.7441,-1.7409,-1.7373,-1.7339,-1.7325,-1.7314,-1.7317,-1.7317,-1.7312,-1.7306,-1.7312,-1.7326,-1.7326,-1.7326,-1.7326,-1.7326,-1.7326,-1.7741,-1.7714,-1.7695,-1.7656,-1.7632,-1.7602,-1.7585,-1.756,-1.7536,-1.7497,-1.7471,-1.7448,-1.7415,-1.7378,-1.7348,-1.7338,-1.7326,-1.7332,-1.7319,-1.7314,-1.7312,-1.731,-1.7315,-1.733,-1.733,-1.7326,-1.7326,-1.7326]},{"header":{"parameterUnit":"m.s-1","parameterCategory":1,"la1":30.2991,"la2":30.254,"lo1":-89.0895,"lo2":-89.0444,"dy":0.0017,"dx":0.0017,"nx":28,"ny":28,"refTime":"2025-04-30T03:00:00:Z","depth":0,"parameterNumber":3,"parameterNumberName":"V-component_of_WINDS"},"data":[0,0,0,0,0,0,0,0,0,0,0,0,0,0,0,0,0,0,0,0,0,0,0,0,0,0,0,0,0,0,0,0,0,0,0,0,0,0,0,0,0,0,0,0,0,0,0,0,0,0,0,0,0,0,0,0,0,0,5.2556,5.2555,0,5.2527,5.2527,5.2527,5.2491,5.2491,5.249,5.249,5.2458,5.2458,5.2458,0,0,0,0,0,0,0,0,0,0,0,0,0,5.2577,5.2577,5.2556,5.2555,5.2555,5.2527,5.2527,5.2527,5.2492,5.2491,5.249,5.249,5.2458,5.2458,5.2458,0,0,0,0,0,0,0,0,0,0,0,0,0,5.256,5.2577,5.2556,5.2534,5.2532,5.2528,5.2527,5.2527,5.2492,5.2491,5.249,5.2489,5.2458,5.2458,5.2458,5.2471,0,0,5.2456,5.2456,0,0,0,0,0,0,0,0,5.2561,5.2559,5.2538,5.2536,5.2533,5.2512,5.2523,5.2508,5.2492,5.2507,5.249,5.2489,5.2477,5.2475,5.2471,5.247,5.2468,5.2456,5.2456,5.2455,5.2455,0,0,0,0,0,0,0,5.2562,5.256,5.2544,5.2537,5.2535,5.2525,5.2522,5.252,5.2497,5.2506,5.2503,5.25,5.2475,5.2472,5.247,5.2468,5.2456,5.2456,5.2455,5.2455,5.2477,5.2477,0,0,0,0,0,0,5.2567,5.2562,5.2545,5.2544,5.2546,5.2526,5.2522,5.252,5.2497,5.2492,5.2501,5.2499,5.2473,5.2471,5.2469,5.2484,5.2456,5.2455,5.2455,5.2476,5.2477,5.2478,0,0,0,0,0,0,5.2568,5.2566,5.2546,5.2552,5.2549,5.2526,5.2524,5.252,5.2516,5.2493,5.2489,5.2502,5.2472,5.247,5.2471,5.2482,5.2455,5.2454,5.2475,5.2476,5.2477,5.2514,0,0,0,0,0,0,5.2569,5.2566,5.2572,5.2552,5.2549,5.255,5.2525,5.252,5.2516,5.2512,5.2493,5.2489,5.2471,5.2472,5.2471,5.2481,5.2454,5.2474,5.2475,5.2477,5.2511,5.2516,5.252,0,0,0,0,0,5.2569,5.2583,5.2572,5.2571,5.2555,5.2551,5.2549,5.2529,5.2517,5.2522,5.2507,5.2489,5.2481,5.2473,5.2471,5.2481,5.2473,5.2475,5.2477,5.2509,5.2515,5.252,0,0,0,0,0,0,5.2603,5.258,5.2568,5.2576,5.2566,5.2545,5.2551,5.2536,5.2528,5.2526,5.2501,5.2497,5.2501,5.2491,5.2482,5.2493,5.2474,5.2476,5.25,5.2505,5.2509,5.2512,5.2454,0,0,0,0,0,5.2612,5.2611,5.259,5.2599,5.2594,5.2574,5.2571,5.2557,5.2545,5.254,5.2526,5.2515,5.2509,5.2507,5.25,5.251,5.2505,5.2516,5.252,5.2524,5.2526,5.253,5.2535,5.2484,5.2484,5.2484,0,0,5.2629,5.2616,5.2617,5.2605,5.2596,5.2595,5.257,5.257,5.2569,5.254,5.2541,5.253,5.2516,5.2522,5.2523,5.2513,5.2538,5.2526,5.2529,5.2529,5.2532,5.2537,5.2542,5.2485,5.2485,5.2485,0,0,5.2661,5.2651,5.2657,5.2648,5.2635,5.2621,5.2622,5.2604,5.2596,5.2597,5.2575,5.2573,5.2565,5.2555,5.255,5.2578,5.2561,5.2576,5.2599,5.2604,5.2608,5.2611,5.2622,5.2626,5.2578,5.2578,5.2578,0,5.2684,5.2683,5.2662,5.2664,5.2659,5.2634,5.264,5.2632,5.2617,5.2614,5.2603,5.2592,5.2581,5.2584,5.2591,5.2587,5.2588,5.2579,5.2609,5.2612,5.2615,5.2625,5.2629,5.258,5.258,5.258,5.258,0,5.2712,5.2711,5.2718,5.2705,5.2701,5.2705,5.2685,5.2683,5.2669,5.2656,5.2657,5.2643,5.2633,5.2633,5.2619,5.2634,5.2629,5.2614,5.2594,5.2622,5.2631,5.2635,5.2583,5.2582,5.2582,5.2581,0,0,5.2765,5.274,5.2743,5.2737,5.272,5.2719,5.2722,5.2714,5.2713,5.2703,5.2705,5.2698,5.2684,5.2678,5.2663,5.2667,5.2691,5.2651,5.265,5.2659,5.2707,5.2719,5.2724,5.2679,5.268,5.268,5.2708,0,5.2793,5.2798,5.2779,5.2788,5.2787,5.2762,5.2764,5.2754,5.2742,5.2739,5.2725,5.2721,5.2703,5.2699,5.2702,5.2687,5.27,5.2685,5.268,5.268,5.2685,5.2728,5.2741,5.2768,5.2712,5.2712,5.2712,0,5.2828,5.2821,5.283,5.2813,5.2812,5.2814,5.2806,5.2803,5.2791,5.2781,5.2775,5.2757,5.2758,5.2739,5.2739,5.273,5.2726,5.2719,5.2719,5.2719,5.2699,5.2729,5.2776,5.2781,5.2718,5.2717,5.2717,0,5.2867,5.2859,5.2864,5.2859,5.2839,5.2842,5.2833,5.282,5.2816,5.2808,5.2806,5.2797,5.2793,5.2787,5.2767,5.2755,5.277,5.275,5.2762,5.2763,5.2767,5.2767,5.2815,5.2764,5.2764,5.2764,5.2764,0,5.2901,5.2908,5.2881,5.2884,5.2891,5.2869,5.2875,5.2864,5.2853,5.2853,5.283,5.283,5.2804,5.2801,5.2786,5.2789,5.2787,5.2779,5.2775,5.2782,5.2783,5.278,5.2778,5.2765,5.2765,5.2765,5.2764,0,5.2946,5.2928,5.2932,5.2913,5.2908,5.2914,5.2897,5.2898,5.2885,5.2885,5.2884,5.2862,5.2857,5.2837,5.2828,5.2817,5.2825,5.2817,5.283,5.2828,5.2842,5.2841,5.289,5.2895,5.2841,5.2841,5.2842,0,5.297,5.2975,5.2956,5.2955,5.2948,5.2946,5.2942,5.2921,5.2918,5.2904,5.2907,5.2901,5.2895,5.2888,5.2871,5.2864,5.2855,5.2873,5.2854,5.2861,5.2856,5.2857,5.2857,5.2877,5.2878,5.2879,5.2879,0,5.3015,5.3006,5.3002,5.2995,5.2992,5.2985,5.2977,5.2977,5.2952,5.295,5.2946,5.2941,5.2932,5.2926,5.2915,5.2906,5.2889,5.2885,5.2888,5.2895,5.2903,5.2899,5.2842,5.2884,5.2884,5.2883,5.2883,5.2883,5.305,5.3054,5.3041,5.3038,5.3029,5.3022,5.3023,5.301,5.3006,5.2997,5.2984,5.2981,5.2968,5.2953,5.2944,5.2941,5.2932,5.2935,5.2936,5.2938,5.2941,5.2903,5.2939,5.2939,5.2939,5.2939,5.2939,0,5.3095,5.3086,5.3083,5.3072,5.3069,5.3054,5.3044,5.3042,5.304,5.303,5.3025,5.3019,5.3013,5.2996,5.2988,5.2989,5.2981,5.2988,5.2988,5.2986,5.295,5.2949,5.2995,5.2995,5.2995,5.2995,5.2995,5.2995,5.3118,5.3123,5.3112,5.3112,5.3102,5.31,5.3096,5.3089,5.3081,5.3076,5.3072,5.306,5.3047,5.3038,5.3031,5.3026,5.3025,5.3034,5.3027,5.2994,5.2989,5.2983,5.2982,5.3034,5.3034,5.3063,5.3063,5.3063]}]]